User: anonymous   Login
Location: Sun City Center
(27.6996°N, 82.3528°W)
Time: 20:34:24
(UTC-04:00)
Language:

Cosmos 2084 Rocket - Orbit

View from above orbital plane
View from above orbital plane
View from above satellite
View from above satellite

Ground track
Ground track

The orbit data is extracted from the following two-line orbital elements,

1 20666U 90055D   16211.93696387 +.00000194 +00000-0 +34211-4 0  9990
2 20666 062.7841 143.1237 0134876 077.5447 284.0700 14.91641899413634
Epoch (UTC): 29 July 2016 22:29:13
Eccentricity: 0.0134876
inclination: 62.7841°
perigee height: 499 km
apogee height: 687 km
right ascension of ascending node: 143.1237°
argument of perigee: 77.5447°
revolutions per day: 14.91641899
mean anomaly at epoch: 284.0700°
orbit number at epoch: 41363

The dashed part of the orbit path shows where the satellite is in the earth's shadow,  

DLR